Location: Unnamed
(47.6264°N, 122.3366°W)
Time: 05:31:05
(UTC-07:00)

X-37B - Pass Details

Date: 24 June 2021
Orbit: 383 x 392 km, 45.0° (Epoch: 01 July)

Event Time Altitude Azimuth Distance (km) Brightness Sun altitude
Rises 21:46:51 0° 223° (SW) 2,249 4.4 -5.4°
Reaches altitude 10° 21:49:12 10° 207° (SSW) 1,398 3.2 -5.7°
Maximum altitude 21:51:39 21° 155° (SSE) 920 1.9 -6.0°
Drops below altitude 10° 21:54:08 10° 103° (ESE) 1,402 2.9 -6.2°
Sets 21:56:29 0° 87° (E) 2,257 4.1 -6.5°
Enters shadow 21:56:34 - 87° (E) 2,286 4.1 -6.5°
